FW8644 Weather Reports


time (UTC)temp
C
wind
direction
speed
KPH
gust
KPH
rain 1hr
cm
rain 24hr
cm
rain mn
cm
humidity
%
barometer
mb
20260508033147 25 106 0.0 0.0 0.00 0.00 0.00 89 1017.9
20260508032647 25 106 0.0 0.0 0.00 0.00 0.00 88 1017.9
20260508032152 25 106 0.0 0.0 0.00 0.00 0.00 88 1018.0
20260508032146 25 106 0.0 0.0 0.00 0.00 0.00 88 1018.0
20260508031645 25 106 0.0 0.0 0.00 0.00 0.00 88 1018.0
20260508030646 25 106 0.0 0.0 0.00 0.00 0.00 88 1018.1
20260508030144 25 106 0.0 0.0 0.00 0.00 0.00 88 1018.1
20260508025649 25 106 0.0 0.0 0.00 0.00 0.00 87 1018.1
20260508025645 25 106 0.0 0.0 0.00 0.00 0.00 88 1018.1
20260508024645 25 106 0.0 0.0 0.00 0.00 0.00 87 1018.1
20260508024146 25 106 0.0 0.0 0.00 0.00 0.00 87 1018.1
20260508023643 25 106 0.0 0.0 0.00 0.00 0.00 87 1018.1
20260508023142 25 106 0.0 0.0 0.00 0.00 0.00 87 1018.1
20260508022643 25 106 0.0 0.0 0.00 0.00 0.00 87 1018.1
20260508022148 26 106 0.0 0.0 0.00 0.00 0.00 87 1018.0
20260508022142 26 106 0.0 0.0 0.00 0.00 0.00 87 1018.0
20260508021142 26 106 0.0 0.0 0.00 0.00 0.00 87 1017.9
20260508020643 26 106 0.0 0.0 0.00 0.00 0.00 86 1018.0
20260508020143 26 106 0.0 0.0 0.00 0.00 0.00 86 1018.0
20260508015643 26 105 0.0 0.0 0.00 0.00 0.00 86 1017.9
20260508015143 26 106 0.0 4.8 0.00 0.00 0.00 86 1017.9
20260508014643 26 106 0.0 4.8 0.00 0.00 0.00 86 1017.8
20260508014144 26 49 0.0 3.2 0.00 0.00 0.00 86 1017.8
20260508013641 26 108 0.0 3.2 0.00 0.00 0.00 86 1017.8
20260508013141 26 100 0.0 3.2 0.00 0.00 0.00 86 1017.7
20260508012641 26 89 0.0 3.2 0.00 0.00 0.00 86 1017.7
20260508012141 26 115 0.0 3.2 0.00 0.00 0.00 86 1017.7
20260508011641 26 82 0.0 3.2 0.00 0.00 0.00 86 1017.6
20260508011138 26 128 0.0 9.7 0.00 0.00 0.00 86 1017.5
20260508010639 26 351 0.0 9.7 0.00 0.00 0.00 86 1017.6
20260508010140 26 85 0.0 6.4 0.00 0.00 0.00 86 1017.6
20260508005644 26 88 0.0 6.4 0.00 0.00 0.00 86 1017.5
20260508005639 26 100 0.0 6.4 0.00 0.00 0.00 85 1017.5
20260508004636 26 124 0.0 6.4 0.00 0.00 0.00 86 1017.5
20260508004137 26 103 0.0 6.4 0.00 0.00 0.00 86 1017.4
20260508003638 26 106 0.0 6.4 0.00 0.00 0.00 85 1017.4
20260508003140 26 58 0.0 6.4 0.00 0.00 0.00 85 1017.5
20260508003135 26 82 0.0 6.4 0.00 0.00 0.00 85 1017.3
20260508002137 26 108 0.0 8.0 0.00 0.00 0.00 85 1017.3
20260508001634 26 49 0.0 8.0 0.00 0.00 0.00 85 1017.3
20260508001140 26 108 0.0 6.4 0.00 0.00 0.00 85 1017.3
20260508001133 26 112 0.0 6.4 0.00 0.00 0.00 85 1017.3
20260508000635 26 65 0.0 6.4 0.00 0.00 0.00 85 1017.4
20260507235636 27 48 0.0 1.6 0.00 0.00 0.00 85 1017.3
20260507235632 26 110 0.0 6.4 0.00 0.00 0.00 85 1017.2
20260507234630 27 1 0.0 3.2 0.00 0.00 0.00 85 1017.3
20260507234130 27 86 0.0 6.4 0.00 0.00 0.00 85 1017.2
20260507233637 27 30 0.0 8.0 0.00 0.00 0.00 85 1016.9
20260507233631 27 108 0.0 6.4 0.00 0.00 0.00 85 1017.1
20260507232631 27 48 0.0 8.0 0.00 0.00 0.00 85 1016.8
20260507232132 27 54 1.6 8.0 0.00 0.00 0.00 85 1016.9
20260507231630 27 70 1.6 11.3 0.00 0.00 0.00 84 1016.7
20260507231132 27 86 1.6 8.0 0.00 0.00 0.00 85 1016.6
20260507231128 27 99 1.6 11.3 0.00 0.00 0.00 85 1016.6
20260507230128 27 101 1.6 9.7 0.00 0.00 0.00 85 1016.5
20260507225629 27 60 1.6 9.7 0.00 0.00 0.00 84 1016.5
20260507225128 27 116 0.0 8.0 0.00 0.00 0.00 84 1016.4
20260507224628 27 86 0.0 6.4 0.00 0.00 0.00 84 1016.2
20260507224126 27 5 1.6 11.3 0.00 0.00 0.00 84 1016.2
20260507223624 27 107 1.6 11.3 0.00 0.00 0.00 84 1016.2
20260507223125 27 76 1.6 8.0 0.00 0.00 0.00 84 1016.1
20260507222624 27 41 1.6 9.7 0.00 0.00 0.00 83 1016.0
20260507222124 27 100 1.6 9.7 0.00 0.00 0.00 83 1016.0
20260507221624 27 101 1.6 11.3 0.00 0.00 0.00 83 1016.1
20260507221124 27 96 1.6 11.3 0.00 0.00 0.00 83 1016.1
20260507220624 27 101 1.6 9.7 0.00 0.00 0.00 83 1016.1
20260507220129 27 109 1.6 9.7 0.00 0.00 0.00 83 1016.1
20260507220124 27 60 1.6 9.7 0.00 0.00 0.00 84 1016.2
20260507215124 27 81 1.6 11.3 0.00 0.00 0.00 83 1016.1
20260507214625 28 97 3.2 11.3 0.00 0.00 0.00 83 1015.9
20260507214130 28 99 1.6 8.0 0.00 0.00 0.00 82 1015.7
20260507214123 28 117 1.6 14.5 0.00 0.00 0.00 82 1015.9
20260507213624 28 88 1.6 14.5 0.00 0.00 0.00 82 1015.7
20260507212625 28 83 1.6 9.7 0.00 0.00 0.00 82 1015.7
20260507212124 28 91 1.6 17.7 0.00 0.00 0.00 82 1015.8
20260507211625 28 72 1.6 17.7 0.00 0.00 0.00 81 1015.7
20260507211125 28 79 1.6 11.3 0.00 0.00 0.00 82 1015.7
20260507210624 28 55 1.6 11.3 0.00 0.00 0.00 81 1015.8
20260507210124 28 71 1.6 8.0 0.00 0.00 0.00 81 1015.7
20260507205626 28 72 1.6 14.5 0.00 0.00 0.00 81 1015.7
20260507205124 29 120 3.2 14.5 0.00 0.00 0.00 80 1015.7
20260507204626 29 19 3.2 16.1 0.00 0.00 0.00 80 1015.7
20260507204128 29 83 3.2 12.9 0.00 0.00 0.00 81 1015.6
20260507204124 30 41 3.2 16.1 0.00 0.00 0.00 80 1015.7
20260507203124 29 88 3.2 12.9 0.00 0.00 0.00 80 1015.6
20260507202626 29 89 3.2 12.9 0.00 0.00 0.00 80 1015.7
20260507202124 30 122 3.2 12.9 0.00 0.00 0.00 79 1015.7
20260507201625 30 61 3.2 14.5 0.00 0.00 0.00 80 1015.7
20260507201124 30 84 3.2 14.5 0.00 0.00 0.00 79 1015.7
20260507200624 30 97 3.2 14.5 0.00 0.00 0.00 79 1015.7
20260507200124 30 112 1.6 14.5 0.00 0.00 0.00 79 1015.8
20260507195624 30 37 1.6 14.5 0.00 0.00 0.00 79 1015.9
20260507195124 30 105 3.2 14.5 0.00 0.00 0.00 79 1015.8
20260507194624 30 57 1.6 14.5 0.00 0.00 0.00 78 1015.8
20260507194129 30 60 3.2 14.5 0.00 0.00 0.00 78 1015.8
20260507194124 30 120 3.2 14.5 0.00 0.00 0.00 79 1015.9
20260507193122 30 150 3.2 14.5 0.00 0.00 0.00 78 1015.9
20260507192622 30 152 3.2 12.9 0.00 0.00 0.00 78 1015.8
20260507192121 31 171 3.2 14.5 0.00 0.00 0.00 77 1015.9
20260507191617 31 291 3.2 14.5 0.00 0.00 0.00 77 1016.0
20260507191119 31 124 3.2 12.9 0.00 0.00 0.00 77 1016.0
20260507190619 31 53 1.6 9.7 0.00 0.00 0.00 77 1016.0
20260507190119 31 109 3.2 16.1 0.00 0.00 0.00 78 1016.0
20260507185623 31 61 3.2 11.3 0.00 0.00 0.00 77 1016.1
20260507185618 31 67 4.8 16.1 0.00 0.00 0.00 78 1016.0
20260507184627 31 100 3.2 11.3 0.00 0.00 0.00 78 1016.0
20260507184500 31 87 3.2 14.5 0.00 0.00 0.00 77 1016.5
20260507184330 31 55 3.2 16.1 0.00 0.00 0.00 78 1016.5
20260507184139 31 95 3.2 17.7 0.00 0.00 0.00 77 1016.2
20260507184134 31 167 3.2 17.7 0.00 0.00 0.00 78 1016.7
20260507184127 31 333 3.2 14.5 0.00 0.00 0.00 77 1016.3
20260507184120 31 84 3.2 9.7 0.00 0.00 0.00 77 1016.1
20260507183952 31 139 3.2 14.5 0.00 0.00 0.00 77 1016.5
20260507183944 31 134 4.8 16.1 0.00 0.00 0.00 77 1016.2
20260507183823 31 92 4.8 16.1 0.00 0.00 0.00 78 1016.7
20260507183816 31 28 3.2 17.7 0.00 0.00 0.00 77 1016.7
20260507183810 31 82 4.8 17.7 0.00 0.00 0.00 79 1016.2
20260507174614 31 46 4.8 17.7 0.00 0.00 0.00 77 1016.8
20260507174114 31 49 3.2 17.7 0.00 0.00 0.00 77 1016.8
20260507173614 31 83 3.2 17.7 0.00 0.00 0.00 77 1016.9
20260507173124 31 14 3.2 14.5 0.00 0.00 0.00 77 1016.9
20260507172615 31 36 4.8 14.5 0.00 0.00 0.00 78 1017.1
20260507172114 31 139 3.2 17.7 0.00 0.00 0.00 76 1016.9
20260507171614 32 63 3.2 17.7 0.00 0.00 0.00 76 1017.1
20260507171123 31 57 3.2 17.7 0.00 0.00 0.00 77 1017.2
20260507170614 31 343 3.2 14.5 0.00 0.00 0.00 76 1017.2
20260507170115 31 78 3.2 12.9 0.00 0.00 0.00 78 1017.4
20260507165614 31 113 3.2 14.5 0.00 0.00 0.00 77 1017.4
20260507165114 31 63 3.2 14.5 0.00 0.00 0.00 77 1017.5
20260507164613 31 129 3.2 11.3 0.00 0.00 0.00 77 1017.6
20260507164113 31 30 3.2 12.9 0.00 0.00 0.00 77 1017.7
20260507163614 31 75 3.2 12.9 0.00 0.00 0.00 76 1017.8
20260507163113 31 134 3.2 11.3 0.00 0.00 0.00 76 1017.8
20260507162618 31 75 3.2 9.7 0.00 0.00 0.00 76 1017.9
20260507162426 31 46 3.2 14.5 0.00 0.00 0.00 76 1017.9
20260507161432 31 68 4.8 16.1 0.00 0.00 0.00 78 1017.9
20260507161427 31 71 3.2 14.5 0.00 0.00 0.00 78 1017.9
20260507160425 31 42 3.2 16.1 0.00 0.00 0.00 77 1018.1
20260507155924 31 64 3.2 14.5 0.00 0.00 0.00 78 1018.1
20260507155424 31 94 3.2 14.5 0.00 0.00 0.00 78 1018.1
20260507154924 31 118 3.2 14.5 0.00 0.00 0.00 78 1018.1
20260507154425 31 8 4.8 14.5 0.00 0.00 0.00 79 1018.3
20260507153925 31 56 4.8 14.5 0.00 0.00 0.00 78 1018.2
20260507153424 31 94 3.2 19.3 0.00 0.00 0.00 77 1018.2
20260507152958 31 86 4.8 11.3 0.00 0.00 0.00 78 1018.4
20260507152926 31 90 3.2 14.5 0.00 0.00 0.00 78 1018.3
20260507152114 31 117 3.2 11.3 0.00 0.00 0.00 78 1018.4
20260507150955 31 68 3.2 11.3 0.00 0.00 0.00 78 1018.4
20260507150452 31 115 3.2 12.9 0.00 0.00 0.00 79 1018.3
20260507145951 31 15 3.2 12.9 0.00 0.00 0.00 78 1018.4
20260507145452 31 27 3.2 12.9 0.00 0.00 0.00 77 1018.3
20260507144951 31 68 3.2 12.9 0.00 0.00 0.00 78 1018.3
20260507144453 31 52 3.2 12.9 0.00 0.00 0.00 78 1018.4
20260507143952 31 72 1.6 12.9 0.00 0.00 0.00 78 1018.4
20260507143458 31 82 3.2 9.7 0.00 0.00 0.00 78 1018.5
20260507143452 31 4 1.6 8.0 0.00 0.00 0.00 79 1018.4
20260507143111 31 68 1.6 11.3 0.00 0.00 0.00 78 1018.5
20260507141954 31 4 1.6 6.4 0.00 0.00 0.00 79 1018.5
20260507141406 31 302 1.6 6.4 0.00 0.00 0.00 79 1018.5
20260507140904 31 77 1.6 8.0 0.00 0.00 0.00 79 1018.4
20260507140406 31 79 1.6 8.0 0.00 0.00 0.00 79 1018.5
20260507135904 30 65 1.6 8.0 0.00 0.00 0.00 80 1018.5
20260507135404 30 35 1.6 9.7 0.00 0.00 0.00 79 1018.7
20260507134901 30 13 1.6 9.7 0.00 0.00 0.00 79 1018.6
20260507134403 30 22 1.6 8.0 0.00 0.00 0.00 79 1018.6
20260507133859 31 82 0.0 8.0 0.00 0.00 0.00 78 1018.6
20260507133401 30 62 0.0 6.4 0.00 0.00 0.00 79 1018.7
20260507132900 30 104 0.0 6.4 0.00 0.00 0.00 79 1018.7
20260507132405 30 15 0.0 8.0 0.00 0.00 0.00 79 1018.6
20260507132401 30 67 0.0 4.8 0.00 0.00 0.00 79 1018.7
20260507131402 30 345 0.0 8.0 0.00 0.00 0.00 77 1018.6
20260507130859 30 103 0.0 6.4 0.00 0.00 0.00 78 1018.6
20260507130401 30 103 0.0 6.4 0.00 0.00 0.00 77 1018.4
20260507125905 30 60 0.0 4.8 0.00 0.00 0.00 77 1018.4
20260507125859 30 42 0.0 4.8 0.00 0.00 0.00 78 1018.4
20260507124900 30 11 0.0 3.2 0.00 0.00 0.00 77 1018.3
20260507124357 30 46 0.0 1.6 0.00 0.00 0.00 77 1018.3
20260507123857 30 158 0.0 1.6 0.00 0.00 0.00 78 1018.3
20260507123358 30 41 0.0 3.2 0.00 0.00 0.00 78 1018.1
20260507122855 30 45 0.0 3.2 0.00 0.00 0.00 78 1018.1
20260507122357 30 127 0.0 1.6 0.00 0.00 0.00 79 1018.1
20260507121901 29 103 0.0 0.0 0.00 0.00 0.00 81 1017.9
20260507121855 30 4 0.0 0.0 0.00 0.00 0.00 81 1018.0
20260507120854 28 77 0.0 0.0 0.00 0.00 0.00 82 1017.9
20260507120354 28 114 0.0 1.6 0.00 0.00 0.00 83 1018.0
20260507115858 27 95 0.0 0.0 0.00 0.00 0.00 85 1017.9
20260507115853 28 81 0.0 1.6 0.00 0.00 0.00 84 1017.8
20260507115507 27 60 0.0 0.0 0.00 0.00 0.00 87 1017.8
20260507115021 26 87 0.0 1.6 0.00 0.00 0.00 90 1017.7
20260507115013 26 63 0.0 1.6 0.00 0.00 0.00 89 1017.7
20260507113357 25 82 0.0 0.0 0.00 0.00 0.00 91 1017.6
20260507113353 25 76 0.0 0.0 0.00 0.00 0.00 90 1017.5
20260507112353 25 82 0.0 0.0 0.00 0.00 0.00 92 1017.5
20260507111854 25 82 0.0 0.0 0.00 0.00 0.00 93 1017.6
20260507111354 25 82 0.0 0.0 0.00 0.00 0.00 93 1017.6
20260507110851 24 82 0.0 0.0 0.00 0.00 0.00 93 1017.4
20260507110351 23 82 0.0 0.0 0.00 0.00 0.00 93 1017.4
20260507105852 23 82 0.0 0.0 0.00 0.00 0.00 93 1017.4
20260507105357 22 83 0.0 0.0 0.00 0.00 0.00 93 1017.4
20260507105351 23 82 0.0 0.0 0.00 0.00 0.00 93 1017.3
20260507104352 22 82 0.0 0.0 0.00 0.00 0.00 93 1017.3
20260507103851 22 82 0.0 0.0 0.00 0.00 0.00 93 1017.4
20260507103352 22 82 0.0 0.0 0.00 0.00 0.00 93 1017.4
20260507102857 22 82 0.0 0.0 0.00 0.00 0.00 92 1017.3
20260507102851 22 82 0.0 0.0 0.00 0.00 0.00 92 1017.3
20260507101851 22 82 0.0 0.0 0.00 0.00 0.00 92 1017.3
20260507101351 22 82 0.0 0.0 0.00 0.00 0.00 92 1017.2
20260507100851 22 82 0.0 0.0 0.00 0.00 0.00 92 1017.2
20260507100351 22 83 0.0 0.0 0.00 0.00 0.00 92 1017.2
20260507095850 22 82 0.0 0.0 0.00 0.00 0.00 92 1017.1
20260507095351 22 82 0.0 0.0 0.00 0.00 0.00 92 1017.0
20260507094852 22 82 0.0 0.0 0.00 0.00 0.00 92 1017.0
20260507094351 22 82 0.0 0.0 0.00 0.00 0.00 92 1017.0
20260507093851 22 82 0.0 0.0 0.00 0.00 0.00 92 1016.9
20260507093349 22 82 0.0 0.0 0.00 0.00 0.00 92 1016.8
20260507092859 22 82 0.0 0.0 0.00 0.00 0.00 92 1016.8
20260507092349 22 83 0.0 0.0 0.00 0.00 0.00 92 1016.7
20260507091854 22 82 0.0 0.0 0.00 0.00 0.00 92 1017.0
20260507091849 22 82 0.0 0.0 0.00 0.00 0.00 92 1016.9
20260507091507 22 82 0.0 0.0 0.00 0.00 0.00 92 1017.0
20260507090859 22 82 0.0 0.0 0.00 0.00 0.00 92 1017.0
20260507090349 22 82 0.0 0.0 0.00 0.00 0.00 92 1017.0
20260507085351 22 82 0.0 0.0 0.00 0.00 0.00 92 1017.1
20260507084849 22 82 0.0 0.0 0.00 0.00 0.00 92 1017.1
20260507084351 22 82 0.0 0.0 0.00 0.00 0.00 92 1017.1
20260507083849 22 82 0.0 0.0 0.00 0.00 0.00 92 1017.2
20260507083349 22 82 0.0 0.0 0.00 0.00 0.00 92 1017.2
20260507082850 22 82 0.0 0.0 0.00 0.00 0.00 92 1017.2
20260507082349 22 82 0.0 0.0 0.00 0.00 0.00 92 1017.1
20260507081845 22 82 0.0 0.0 0.00 0.00 0.00 92 1017.2
20260507081346 22 82 0.0 0.0 0.00 0.00 0.00 92 1017.1
20260507080846 22 83 0.0 0.0 0.00 0.00 0.00 92 1017.1
20260507080346 22 83 0.0 0.0 0.00 0.00 0.00 91 1017.1
20260507075845 22 82 0.0 0.0 0.00 0.00 0.00 91 1017.0
20260507075348 22 82 0.0 0.0 0.00 0.00 0.00 91 1017.0
20260507075342 22 82 0.0 0.0 0.00 0.00 0.00 91 1017.1
20260507074341 22 82 0.0 0.0 0.00 0.00 0.00 91 1017.0
20260507073841 22 82 0.0 0.0 0.00 0.00 0.00 91 1017.0
20260507073342 22 82 0.0 0.0 0.00 0.00 0.00 91 1017.1
20260507072838 22 82 0.0 0.0 0.00 0.00 0.00 91 1017.1
20260507072338 22 82 0.0 0.0 0.00 0.00 0.00 91 1017.1
20260507071837 22 82 0.0 0.0 0.00 0.00 0.00 91 1017.2
20260507071338 22 82 0.0 0.0 0.00 0.00 0.00 91 1017.3
20260507070837 22 82 0.0 0.0 0.00 0.00 0.00 91 1017.4
20260507070343 22 82 0.0 0.0 0.00 0.00 0.00 90 1017.4
20260507070337 22 82 0.0 0.0 0.00 0.00 0.00 91 1017.5
20260507065837 22 82 0.0 0.0 0.00 0.00 0.00 91 1017.5
20260507064838 22 82 0.0 0.0 0.00 0.00 0.00 90 1017.4
20260507064339 22 82 0.0 0.0 0.00 0.00 0.00 90 1017.6
20260507063838 23 82 0.0 0.0 0.00 0.00 0.00 90 1017.6
20260507062957 23 82 0.0 0.0 0.00 0.00 0.00 90 1017.6
20260507062455 23 82 0.0 0.0 0.00 0.00 0.00 90 1017.7
20260507061955 23 82 0.0 0.0 0.00 0.00 0.00 90 1017.7
20260507061454 23 82 0.0 0.0 0.00 0.00 0.00 90 1017.7
20260507060955 23 82 0.0 0.0 0.00 0.00 0.00 90 1017.9
20260507060451 23 82 0.0 0.0 0.00 0.00 0.00 90 1017.8
20260507055954 23 82 0.0 0.0 0.00 0.00 0.00 89 1017.9
20260507054522 23 82 0.0 0.0 0.00 0.00 0.00 89 1018.0
20260507054022 23 82 0.0 0.0 0.00 0.00 0.00 89 1018.1
20260507053521 23 82 0.0 0.0 0.00 0.00 0.00 89 1018.3
20260507053022 23 82 0.0 0.0 0.00 0.00 0.00 89 1018.3
20260507052524 23 82 0.0 0.0 0.00 0.00 0.00 89 1018.5
20260507052520 23 82 0.0 0.0 0.00 0.00 0.00 89 1018.4
20260507051519 23 82 0.0 0.0 0.00 0.00 0.00 89 1018.5
20260507051018 23 82 0.0 0.0 0.00 0.00 0.00 89 1018.6
20260507050520 23 82 0.0 0.0 0.00 0.00 0.00 89 1018.7
20260507050016 23 82 0.0 0.0 0.00 0.00 0.00 89 1018.7
20260507045518 23 82 0.0 0.0 0.00 0.00 0.00 89 1018.7
20260507045016 23 82 0.0 0.0 0.00 0.00 0.00 89 1018.7
20260507044517 23 82 0.0 0.0 0.00 0.00 0.00 89 1018.9
20260507044017 23 82 0.0 0.0 0.00 0.00 0.00 88 1018.9
20260507043519 23 82 0.0 0.0 0.00 0.00 0.00 88 1019.0
20260507043016 23 82 0.0 0.0 0.00 0.00 0.00 88 1019.2
20260507042519 23 82 0.0 0.0 0.00 0.00 0.00 88 1019.3
20260507042016 23 82 0.0 0.0 0.00 0.00 0.00 88 1019.4
20260507041517 23 82 0.0 0.0 0.00 0.00 0.00 88 1019.5
20260507041026 23 82 0.0 0.0 0.00 0.00 0.00 88 1019.4
20260507040516 23 83 0.0 0.0 0.00 0.00 0.00 88 1019.5
20260507040016 23 82 0.0 0.0 0.00 0.00 0.00 88 1019.5
20260507035518 23 82 0.0 0.0 0.00 0.00 0.00 88 1019.5
20260507035017 23 82 0.0 0.0 0.00 0.00 0.00 88 1019.5
20260507034527 23 82 0.0 0.0 0.00 0.00 0.00 88 1019.5
20260507034019 23 82 0.0 0.0 0.00 0.00 0.00 87 1019.6